Flag for U.S.A. Weather past 2 weeks in Provo, Utah, U.S.A.

Now
82 °F

Sunny.


Feels Like: 80 °F
Forecast: 53 / 90 °F
Wind: 6 mph from North

Location: Provo Municipal

Current Time: Jul 30, 2015 at 2:57:39 PM

Latest Report: Jul 30, 2015 at 1:54 PM


Visibility: 15 mi

Pressure: 30.31 "Hg (25.90 "Hg at 1386m altitude)

Humidity: 20%

Dew point: 37 °F

Location of ProvoLocation

Historic Weather in Provo — Graph

°F

Provo temperature yesterday

Maximum temperature yesterday: 73 °F (at 9:15 PM)
Minimum temperature yesterday: 48 °F (at 5:15 AM)
Average temperature yesterday: 57 °F

Past Weeks' High & Low Weather Summary

 TemperatureHumidityPressure
High93 °F (Jul 26, 2:51 PM)77% (Jul 21, 6:35 AM)30.34 "Hg (Jul 21, 6:35 AM)
Low48 °F (Jul 29, 5:15 AM)11% (Jul 26, 2:51 PM)29.83 "Hg (Jul 17, 6:50 PM)
Average68 °F44%30.08 "Hg
* Reported Jul 15 1:50 PM — Jul 30 1:54 PM, Provo, Weather by CustomWeather, © 2015

Note: Actual official high and low records may vary slightly from our data, if they occured in-between our weather recording intervals... More about our weather records

Advertising

Provo weather history for previous 24 hours

 ConditionsComfort  
Time TempWeatherWind HumidityBarometerVisibility
1:54 PM
Thu, Jul 30
82 °FSunny.6 mph20%30.31 "Hg15 mi
12:59 PM81 °FSunny.6 mph26%30.32 "Hg15 mi
11:57 AM75 °FSunny.5 mph34%30.33 "Hg15 mi
10:55 AM73 °FSunny.3 mph31%30.33 "Hg15 mi
9:55 AM72 °FSunny.No wind29%30.34 "Hg15 mi
8:55 AM66 °FSunny.No wind28%30.34 "Hg15 mi
7:50 AM57 °FSunny.3 mph41%30.34 "Hg15 mi
6:50 AM54 °FClear.3 mph47%30.31 "Hg15 mi
6:35 AM55 °FClear.No wind44%30.31 "Hg10 mi
6:15 AM55 °FClear.No wind44%30.31 "Hg10 mi
5:55 AM54 °FClear.3 mph51%30.30 "Hg10 mi
5:35 AM52 °FClear.5 mph54%30.30 "Hg10 mi
5:15 AM54 °FClear.9 mph47%30.29 "Hg10 mi
4:55 AM61 °FClear.No wind31%30.29 "Hg10 mi
4:35 AM57 °FClear.No wind41%30.28 "Hg10 mi
4:15 AM61 °FClear.3 mph31%30.28 "Hg10 mi
3:55 AM61 °FClear.5 mph31%30.28 "Hg10 mi
3:35 AM55 °FClear.6 mph44%30.28 "Hg10 mi
3:15 AM57 °FClear.6 mph39%30.28 "Hg10 mi
2:55 AM59 °FClear.5 mph36%30.27 "Hg10 mi
2:35 AM59 °FClear.7 mph34%30.28 "Hg10 mi
2:15 AM63 °FClear.8 mph30%30.28 "Hg10 mi
1:55 AM61 °FClear.6 mph36%30.28 "Hg10 mi
1:35 AM59 °FClear.6 mph45%30.28 "Hg10 mi
1:15 AM61 °FClear.7 mph42%30.27 "Hg10 mi
12:55 AM63 °FClear.8 mph37%30.27 "Hg10 mi
12:35 AM63 °FClear.8 mph39%30.27 "Hg10 mi
12:15 AM64 °FClear.7 mph40%30.26 "Hg10 mi
11:55 PM
Wed, Jul 29
66 °FClear.6 mph37%30.26 "Hg10 mi
11:35 PM66 °FClear.3 mph40%30.25 "Hg9 mi
11:15 PM70 °FClear.5 mph38%30.25 "Hg10 mi
10:55 PM72 °FClear.7 mph36%30.25 "Hg10 mi
10:35 PM70 °FClear.3 mph40%30.25 "Hg10 mi
10:15 PM70 °FClear.6 mph43%30.24 "Hg9 mi
9:55 PM73 °FClear.5 mph36%30.24 "Hg10 mi
9:15 PM73 °FSunny.12 mph38%30.22 "Hg10 mi
Weather by CustomWeather, © 2015

See weather overviewHow to use our weather pages